GFSSGP_925_spd_231.txt.gz
Wind_Speed
13 11 12 4 3 3 3 7 3 6 3 1 2 6 8 3 3 3 18 21 32 38 33 29 27 26 24 25 24 22 20 20 19 18 18 17 17 17 17 17 16 18 20 19 18 18 17 19 20
12 12 4 1 4 1 5 6 12 4 5 5 6 4 4 3 3 7 16 30 34 38 35 30 29 28 26 27 26 23 21 20 19 17 18 16 16 15 17 16 15 20 21 19 19 19 19 19 19
12 10 2 4 4 5 5 2 6 4 3 3 4 5 4 3 3 14 24 36 35 36 34 31 30 29 27 27 28 24 21 20 18 17 16 16 17 16 17 16 18 21 20 19 19 19 20 20 19
6 5 3 2 6 7 12 5 2 3 3 5 5 7 4 7 17 11 34 34 33 34 33 32 31 27 28 28 26 25 23 20 20 17 14 17 17 17 17 15 17 22 20 19 19 19 20 20 18
2 1 2 3 7 8 9 4 3 4 1 3 3 6 4 4 17 30 36 32 32 30 31 32 30 27 28 29 27 24 23 20 20 19 14 19 19 16 16 14 20 21 20 19 20 21 21 21 22
2 2 1 7 5 9 9 9 6 2 1 4 3 7 1 16 25 29 33 31 32 33 32 31 29 26 28 27 26 24 22 21 19 18 16 17 16 16 16 17 20 21 20 20 20 22 22 21 21
4 2 5 3 6 6 9 9 7 6 3 1 1 4 2 5 24 25 28 32 31 31 33 31 29 26 28 27 25 25 22 22 21 17 19 16 16 17 16 18 21 20 19 20 21 22 23 20 20
3 3 2 4 7 9 5 5 5 7 3 2 3 5 5 6 21 28 23 31 32 31 33 32 29 27 27 27 25 24 23 21 20 17 19 17 18 17 17 19 20 19 19 20 21 22 23 22 20
2 2 3 5 5 7 7 4 3 4 5 3 4 4 8 30 23 24 25 28 30 30 31 32 30 29 28 28 25 24 22 21 21 20 19 19 17 16 16 20 19 19 18 20 21 22 22 21 19
3 4 5 5 3 4 6 7 3 4 4 6 6 5 23 24 28 23 18 19 22 27 31 31 33 31 29 29 27 25 23 20 20 20 19 18 18 18 19 19 18 16 17 21 21 20 19 19 18
3 4 7 12 4 7 8 6 6 4 4 3 6 9 13 16 17 19 19 21 23 27 29 31 32 31 29 30 30 28 26 23 19 19 19 19 20 18 20 22 20 19 17 21 21 17 14 13 16
4 5 7 10 9 3 4 8 7 4 4 7 8 15 9 9 13 17 18 21 26 28 30 32 29 30 28 29 31 31 29 25 20 20 23 21 21 21 21 21 20 19 18 21 18 14 13 11 13
3 7 9 11 7 5 3 5 3 8 5 6 5 10 11 9 13 20 24 23 24 31 29 32 32 31 29 28 33 30 31 26 21 21 24 21 23 21 21 21 20 18 17 18 16 14 13 13 15
5 6 8 6 8 5 3 5 3 4 8 6 7 8 8 9 16 19 22 23 27 27 33 32 31 32 34 32 33 31 32 25 24 21 24 26 23 21 22 21 21 18 15 13 15 15 16 15 17
5 6 7 6 3 3 4 6 5 8 7 10 8 8 8 11 21 21 26 25 31 30 27 35 34 29 34 34 31 33 31 27 26 24 26 26 21 23 22 22 22 20 18 15 14 14 16 17 16
2 1 4 5 4 6 7 8 6 10 7 11 13 10 9 10 20 27 30 29 34 33 34 32 30 31 30 31 30 30 31 31 30 28 30 26 23 24 23 23 21 22 19 18 16 19 19 17 16
4 2 3 6 4 2 5 3 11 11 9 12 11 15 13 9 10 24 31 30 30 38 37 36 31 32 34 30 29 25 28 32 32 29 30 29 27 27 23 22 20 21 21 20 19 21 20 18 16
4 4 5 5 7 9 7 7 9 12 5 8 8 8 11 9 13 26 33 35 32 35 39 38 37 31 31 30 30 29 26 28 32 30 30 29 30 27 27 24 23 24 24 22 21 23 20 18 18
4 4 8 10 12 7 4 7 9 13 11 9 10 7 7 8 7 22 29 35 36 31 36 40 40 38 32 31 33 33 30 28 32 32 32 31 33 30 29 27 26 26 27 26 24 24 24 22 22
2 3 6 9 7 8 8 14 16 14 17 15 8 8 8 7 6 4 22 27 28 35 38 37 40 40 39 34 30 30 34 29 31 31 33 33 34 35 30 31 31 29 29 28 28 28 29 24 29
4 4 3 5 8 4 9 6 3 5 13 16 15 6 6 6 8 7 10 19 27 27 30 36 40 41 40 38 29 23 30 29 30 32 33 34 34 37 35 34 33 32 31 31 32 33 34 26 33
5 6 6 7 7 3 6 4 8 9 6 2 8 8 11 8 7 8 5 12 18 26 34 36 36 37 40 42 34 30 29 28 30 31 35 36 36 37 42 37 36 35 35 34 35 36 38 34 28
2 3 3 3 5 5 2 4 7 5 9 9 10 9 10 10 9 10 12 12 20 29 30 32 35 36 36 39 39 36 31 32 28 27 33 36 39 39 40 42 41 38 38 37 37 37 41 42 34
6 5 5 1 2 2 3 4 5 3 5 5 13 14 14 13 10 10 21 26 8 23 34 34 33 36 37 38 40 38 37 30 26 29 32 35 39 42 40 43 44 42 41 39 38 38 42 44 40
4 3 3 4 3 5 2 3 6 6 9 10 11 16 17 15 14 12 11 17 24 17 21 34 34 34 37 38 39 38 40 35 36 31 33 30 31 38 44 42 45 47 45 41 39 39 41 44 46
4 2 1 3 2 4 6 4 3 3 5 9 11 11 14 17 15 15 17 16 19 22 19 16 30 33 34 38 39 41 37 34 35 33 31 33 35 39 44 47 45 47 46 46 40 39 42 42 46
3 2 3 0 1 2 3 5 4 16 18 20 19 17 16 16 16 15 19 21 21 23 29 26 21 35 38 41 40 37 36 35 35 36 31 33 36 37 38 43 46 48 47 47 43 40 40 39 43
2 4 1 2 3 4 4 4 5 19 19 20 19 17 17 16 16 15 17 22 24 23 25 28 22 33 37 39 36 36 36 35 33 30 32 32 37 40 38 42 45 45 46 45 44 41 41 39 42
1 1 2 2 2 2 2 4 5 9 12 15 18 15 14 15 14 14 18 23 24 23 19 19 11 12 23 31 31 28 30 33 32 30 33 34 32 35 37 41 44 44 45 45 43 42 41 40 40
3 4 2 2 3 3 2 3 3 10 11 10 12 11 13 12 13 12 19 23 25 24 19 12 16 13 7 7 19 27 28 29 31 34 35 35 38 38 33 36 38 40 43 42 42 42 41 41 39

GFSSGP_925_spd_237.txt.gz
Wind_Speed
12 12 9 5 3 4 3 5 2 6 6 4 2 3 6 2 4 4 10 14 34 38 35 30 28 27 26 26 24 23 22 21 20 19 18 19 16 15 13 15 16 15 13 13 15 17 22 24 24
11 9 2 2 4 2 5 4 3 3 2 4 3 4 4 1 3 6 15 24 37 39 36 31 28 26 26 26 25 25 21 21 20 18 19 17 17 14 12 16 17 15 14 13 15 17 22 24 25
7 3 3 4 4 7 5 5 4 1 2 1 3 4 2 2 4 17 9 33 37 36 35 33 28 26 28 26 25 23 21 23 20 19 18 18 15 13 13 18 18 15 15 15 15 16 20 24 24
2 3 4 2 8 5 7 6 2 4 2 3 3 4 3 4 10 9 26 37 37 35 35 33 26 25 27 27 23 21 21 20 19 19 19 15 13 13 15 19 18 15 15 17 15 16 19 23 23
2 2 2 3 6 3 3 6 1 3 5 1 3 2 2 4 6 19 30 32 34 34 34 31 27 27 28 24 23 21 20 18 20 19 19 15 15 13 17 19 18 17 15 15 13 13 19 23 23
3 2 2 5 4 3 3 5 4 3 4 3 6 4 1 3 19 26 30 29 29 35 33 31 27 27 26 26 21 20 19 16 18 20 19 16 14 13 16 18 17 16 15 14 13 13 20 23 22
5 3 3 2 3 4 3 3 4 7 4 5 9 5 1 5 15 28 29 30 26 33 34 32 26 26 25 24 22 19 20 15 17 18 18 16 13 12 17 18 18 17 15 14 13 15 19 21 21
3 4 2 4 2 3 4 5 2 5 5 3 2 6 4 7 19 26 29 28 25 31 34 32 30 29 25 25 22 21 19 16 17 18 18 15 13 16 18 17 17 17 15 14 15 16 17 18 18
3 2 2 3 4 1 5 6 6 5 3 3 4 3 7 30 26 24 22 23 24 29 33 32 30 31 29 27 24 21 20 18 16 16 17 15 15 16 19 17 16 16 16 15 16 16 17 18 19
3 3 6 2 4 3 5 5 5 5 5 5 4 6 22 29 30 21 19 18 23 24 30 32 31 32 30 28 25 24 22 19 17 18 16 17 16 17 18 16 15 17 17 16 16 17 18 19 18
2 4 1 5 5 5 4 6 4 2 3 2 3 6 9 22 23 23 19 21 22 25 25 31 32 32 30 31 27 25 23 20 19 19 17 18 18 19 20 18 16 17 19 18 17 18 18 18 17
2 3 3 5 7 4 4 6 6 3 0 5 4 5 6 7 14 22 20 20 21 23 27 30 31 32 32 30 29 28 25 21 21 21 20 20 19 20 21 18 16 18 20 20 16 16 16 15 15
4 6 6 6 8 5 5 3 2 5 6 8 7 5 4 6 7 15 20 21 20 23 27 30 33 33 33 32 31 28 27 23 21 22 22 21 21 23 22 18 16 18 20 19 17 16 15 14 14
4 5 9 3 4 5 2 1 3 4 5 9 5 2 1 4 9 12 18 21 24 24 27 30 36 36 35 36 35 32 28 25 24 24 23 23 23 24 23 22 20 19 22 19 15 15 14 13 14
4 6 7 5 3 2 2 4 4 3 6 6 5 3 4 6 5 16 25 26 29 31 31 33 37 37 37 37 36 36 32 29 28 24 23 25 24 24 25 24 21 20 23 20 16 15 14 14 14
4 3 5 6 8 5 2 2 6 8 6 5 2 3 6 8 12 21 22 22 26 29 33 32 36 37 40 38 38 38 37 34 32 29 28 27 26 25 26 24 22 22 23 22 18 17 16 16 17
7 2 4 7 6 6 6 5 5 6 5 5 5 4 3 6 9 17 25 28 28 31 32 36 37 37 38 36 38 39 40 37 36 32 30 30 27 28 30 27 24 25 25 22 20 19 19 18 18
4 4 4 4 8 6 6 5 11 8 3 5 5 5 5 7 7 13 17 28 31 32 32 32 35 34 38 34 34 34 36 40 38 36 31 30 31 29 32 29 26 28 27 23 22 21 21 20 19
1 2 3 3 3 5 5 7 9 13 8 7 5 6 8 9 15 21 22 17 26 29 28 29 32 36 34 30 30 28 30 31 35 39 35 31 32 32 33 30 27 29 30 27 24 22 23 21 19
3 3 4 3 5 3 6 6 5 13 16 18 17 15 15 15 17 25 28 29 11 23 30 33 34 32 39 33 32 28 34 31 41 40 38 35 34 33 35 33 32 32 29 30 27 27 24 23 22
4 4 4 3 7 2 7 1 5 3 11 15 17 13 15 15 16 18 26 25 28 27 17 25 32 35 35 32 29 27 22 21 27 33 39 38 35 35 37 37 35 35 31 33 32 31 31 28 27
2 2 2 4 4 2 4 2 3 6 7 14 15 15 15 16 16 16 24 26 26 29 28 19 17 24 33 35 30 29 28 24 29 33 39 40 40 39 41 40 39 38 35 35 36 35 34 30 29
2 5 3 2 2 3 4 4 4 6 10 19 15 14 13 12 13 14 21 24 25 26 28 27 21 12 21 35 38 36 29 27 23 26 32 34 39 40 43 43 41 42 39 37 37 36 36 38 28
5 3 5 4 3 3 3 3 4 5 7 15 16 16 16 15 13 17 21 23 27 29 29 29 26 17 12 22 34 38 36 30 25 28 32 34 38 42 44 45 45 44 44 42 40 40 41 40 39
6 5 3 5 5 3 2 2 1 4 3 6 14 17 17 16 16 15 19 23 24 27 31 29 28 26 16 12 23 31 35 32 31 33 32 30 33 34 40 41 41 45 47 46 43 42 43 43 42
4 3 2 4 2 4 3 1 3 1 1 6 8 16 18 18 17 18 22 23 21 24 27 29 28 28 24 18 15 26 31 35 38 36 33 32 33 39 41 44 46 46 47 45 45 43 45 43 44
3 4 3 3 2 1 3 2 4 4 6 11 15 16 16 17 18 19 22 22 24 22 22 24 24 26 25 25 20 20 27 29 28 31 33 32 34 33 35 38 41 45 45 42 41 42 41 41 45
3 1 3 3 3 3 3 2 3 13 16 16 16 14 15 15 15 15 20 22 22 22 21 21 20 21 25 23 24 23 27 27 28 28 28 27 30 32 34 34 38 42 40 39 41 37 41 38 42
4 3 2 1 2 2 3 2 3 7 9 10 11 12 13 15 16 14 21 23 22 21 21 20 19 20 20 20 22 19 23 25 26 25 26 29 30 31 34 32 35 39 39 37 37 38 38 37 40
1 2 2 3 4 1 2 3 3 4 5 6 8 10 12 14 14 18 22 23 21 21 23 23 23 23 20 13 10 13 16 15 19 19 22 26 29 30 34 33 34 36 38 39 38 39 38 39 36

GFSSGP_925_spd_240.txt.gz
Wind_Speed
12 10 8 5 3 4 3 5 2 4 3 3 3 5 4 2 3 3 4 12 31 37 35 29 27 26 26 23 22 19 19 19 19 18 18 18 16 15 14 15 15 14 13 14 16 22 24 23 23
11 4 4 2 4 2 5 3 5 4 4 4 4 2 5 2 2 4 11 22 32 36 34 30 28 26 25 24 21 20 18 18 17 17 18 15 14 12 14 16 16 12 11 13 16 21 21 20 22
4 3 4 4 4 8 5 5 6 3 4 4 4 4 2 2 3 14 4 26 34 34 32 29 27 27 26 23 23 19 18 19 16 17 16 15 13 12 17 17 16 13 12 13 16 20 22 22 21
2 4 4 4 7 4 4 6 3 3 3 3 4 5 2 3 8 8 24 28 32 33 31 29 28 26 24 22 22 20 18 19 16 16 16 13 12 11 18 18 17 14 11 13 14 19 22 22 21
3 3 3 2 4 2 4 6 5 4 4 1 2 4 3 4 5 15 27 30 30 32 30 27 23 26 24 22 20 19 18 17 17 17 13 12 12 12 18 18 19 16 16 11 12 17 22 22 21
3 3 3 4 2 2 4 6 3 2 1 2 2 6 3 6 16 26 26 28 30 32 32 27 23 24 24 21 20 20 15 17 17 17 14 13 13 16 18 17 17 16 16 12 11 14 22 21 20
5 4 4 3 3 3 4 5 4 5 3 5 7 5 3 4 17 22 26 27 31 31 31 27 24 24 23 22 20 18 16 18 19 17 14 13 12 14 17 16 17 16 14 12 10 16 21 20 19
4 4 2 3 3 1 3 7 2 1 3 1 1 4 5 7 24 23 24 24 29 31 30 27 25 24 23 22 21 19 16 14 16 17 15 12 10 14 17 16 17 16 13 10 13 17 19 19 17
1 4 2 2 1 1 5 6 4 3 2 3 4 2 1 29 28 25 23 21 25 29 30 28 27 25 24 23 20 18 18 15 16 17 15 12 13 17 17 15 16 16 14 14 13 14 15 16 17
4 2 5 4 3 3 7 5 6 5 4 4 3 7 17 24 25 28 19 13 19 24 28 30 29 29 25 25 22 20 19 17 16 17 15 13 16 17 15 15 16 16 13 14 14 14 15 15 19
2 2 4 5 7 6 5 7 5 6 5 3 5 4 5 17 18 18 23 19 20 21 27 30 30 30 28 28 24 22 22 19 17 18 16 15 17 18 17 15 15 16 15 15 15 15 16 16 16
2 4 3 4 7 7 6 7 4 6 4 8 7 6 4 8 13 15 17 25 20 22 24 28 30 30 29 29 26 24 23 21 19 19 18 19 19 20 20 17 17 17 16 16 16 16 16 16 16
4 5 6 7 7 5 5 5 2 5 6 7 8 8 6 5 5 9 11 15 23 24 22 28 30 31 32 29 27 27 24 22 20 21 20 20 20 21 21 18 18 18 18 16 17 16 16 15 15
4 4 8 6 6 5 3 2 3 6 8 10 8 5 4 4 3 9 14 15 16 19 24 27 30 31 33 32 32 30 28 25 23 23 22 21 20 22 21 19 17 19 19 18 16 16 15 14 13
2 4 3 9 8 4 3 3 5 7 7 7 7 4 3 1 5 8 14 15 23 18 24 29 31 33 35 34 35 34 31 28 26 25 24 23 22 22 23 21 19 18 20 18 16 16 14 13 13
5 4 4 4 12 7 5 3 3 9 8 7 7 6 6 4 5 8 15 19 22 28 32 31 32 35 36 36 36 36 35 32 30 28 26 24 24 21 24 24 21 18 21 21 17 17 16 14 14
7 3 5 6 6 4 6 2 9 12 7 7 7 7 7 9 16 23 23 17 25 26 32 33 30 33 36 37 37 36 37 37 35 32 31 27 25 24 25 25 22 19 20 23 20 17 16 16 15
4 4 4 3 7 6 6 8 12 16 10 10 11 13 13 12 14 23 30 27 12 23 27 27 26 28 33 34 33 34 34 37 37 36 32 31 29 27 27 26 25 21 22 23 23 19 17 16 17
2 1 3 3 2 6 6 8 10 13 19 17 15 15 15 14 16 23 28 31 31 15 13 22 26 30 32 34 31 30 33 33 34 38 36 32 33 31 29 28 27 26 27 27 24 21 21 20 17
3 2 5 5 4 3 5 5 7 10 10 12 13 14 15 16 18 25 27 28 29 28 27 17 12 21 33 37 32 30 27 28 32 37 40 38 36 36 32 30 30 30 29 31 29 26 22 21 19
2 3 3 3 6 3 3 3 4 3 7 9 12 9 11 14 17 18 25 24 27 29 31 27 18 9 22 31 27 24 19 18 24 25 32 39 38 37 37 32 30 32 31 32 31 30 29 25 24
2 1 3 5 4 2 3 2 2 5 5 13 14 14 13 15 14 17 24 26 26 27 29 26 22 15 9 24 26 27 26 16 23 34 32 34 41 40 39 37 34 32 35 36 33 32 32 30 27
4 6 3 2 2 2 6 4 1 6 9 17 15 14 13 13 14 15 22 25 26 24 26 27 24 20 11 9 27 30 26 22 19 26 29 35 40 43 39 39 39 36 37 38 38 36 35 36 29
6 2 4 3 2 3 4 3 3 5 6 10 11 12 14 15 14 18 22 24 24 25 25 29 26 23 17 13 10 26 27 25 21 21 27 31 32 34 36 38 39 39 39 40 40 40 40 41 39
7 5 3 4 5 4 2 2 2 2 2 5 12 14 13 13 16 17 22 24 26 27 26 26 25 26 21 17 15 11 28 29 28 30 30 29 30 33 36 38 37 38 40 41 41 40 43 42 41
4 3 3 2 3 4 4 2 3 2 3 6 6 8 11 16 16 16 23 24 24 26 25 24 25 24 23 21 17 15 13 26 28 28 31 31 30 33 35 38 37 40 40 41 40 39 41 41 43
6 4 2 3 3 1 3 2 3 3 5 11 13 14 17 18 15 16 22 23 24 23 23 22 22 23 22 24 23 20 18 19 24 27 28 29 27 28 28 32 36 39 40 43 40 36 37 39 43
2 4 4 3 3 4 4 4 3 8 12 11 13 14 14 15 14 14 20 23 24 22 21 20 20 21 22 21 22 24 22 20 25 25 24 25 26 27 28 31 36 36 38 36 33 37 37 37 38
4 4 2 1 1 1 3 4 2 5 6 8 9 10 11 13 13 12 18 22 22 23 21 21 21 22 23 21 21 21 24 20 22 24 22 22 23 24 27 29 31 33 34 34 34 33 33 31 34
2 2 1 3 5 1 2 4 2 4 4 5 8 10 9 8 8 13 18 21 22 22 22 22 23 24 24 22 19 13 6 9 15 16 16 17 17 17 21 25 27 30 32 31 30 31 30 35 34

GFSSGP_925_spd_246.txt.gz
Wind_Speed
8 7 5 4 6 5 10 6 3 5 3 1 4 2 4 4 0 2 6 8 24 27 24 25 25 24 23 22 21 19 19 18 18 16 15 12 12 11 13 12 10 13 16 21 25 24 24 23 22
5 1 2 1 7 10 11 9 9 5 2 4 5 5 4 3 3 7 14 13 26 26 24 23 25 25 23 22 21 19 17 15 14 13 13 11 11 12 13 13 13 13 18 22 24 23 22 22 21
2 2 4 4 8 13 7 10 9 0 2 2 2 1 1 4 4 14 8 24 26 24 23 23 24 25 22 22 20 19 18 16 14 14 13 12 11 12 12 11 11 13 18 20 23 21 21 21 20
3 3 2 6 12 8 11 4 3 6 2 1 0 3 4 4 7 6 21 27 25 25 24 27 23 25 25 22 21 20 18 16 15 12 12 11 12 12 13 11 11 13 17 19 20 19 20 20 19
3 2 5 6 12 4 5 6 5 4 1 1 2 4 3 3 5 13 24 26 26 25 26 24 26 26 24 22 20 20 18 17 16 14 13 11 10 15 14 11 12 13 16 19 19 18 19 19 18
3 2 4 9 6 4 5 5 7 7 5 3 2 5 4 2 9 20 21 24 24 27 28 22 26 25 22 19 20 20 18 20 18 18 13 11 11 16 15 13 11 12 12 18 20 19 18 17 17
3 3 3 5 3 1 3 9 6 9 9 6 4 2 4 4 13 18 22 25 23 27 27 22 22 20 21 18 18 18 14 19 20 15 12 11 13 16 15 13 14 11 11 15 21 19 18 17 17
1 3 4 2 2 2 7 6 2 3 4 2 5 2 4 11 16 17 21 22 26 24 23 23 21 20 20 18 18 16 15 17 16 13 13 12 17 16 14 14 12 12 12 10 19 19 18 17 17
3 3 3 2 3 2 7 6 4 3 4 3 5 4 2 18 16 21 22 23 23 21 23 24 20 20 18 18 17 11 16 14 14 13 13 14 13 14 15 14 13 11 10 10 17 18 16 17 16
2 2 2 4 6 6 10 7 7 2 4 6 4 8 7 20 18 18 20 20 20 21 20 26 20 19 18 17 18 12 13 13 13 11 11 11 12 13 16 15 13 10 12 11 19 17 15 15 13
3 2 2 2 6 9 9 7 12 1 6 10 13 4 7 16 18 19 19 21 22 24 24 23 21 19 19 17 17 14 12 12 11 12 10 10 12 13 12 11 11 9 11 11 15 16 14 11 12
2 6 5 5 7 6 6 10 7 14 9 12 11 4 3 5 8 12 16 19 21 26 25 28 24 21 19 16 17 15 15 13 13 12 11 11 12 14 12 11 10 10 10 11 12 12 10 11 10
6 5 3 8 4 5 8 5 3 14 21 11 10 9 8 7 9 6 2 11 17 22 22 24 26 24 21 19 17 16 15 14 14 13 13 12 12 13 11 10 10 9 9 10 11 11 11 11 10
1 1 7 8 5 6 5 5 2 17 19 14 14 17 15 20 20 23 25 16 11 14 18 20 22 26 22 21 19 18 16 15 14 13 14 14 13 14 13 11 10 9 9 9 10 10 10 10 9
1 2 2 17 12 4 7 4 13 18 10 14 16 14 16 20 22 20 17 18 16 9 13 16 19 22 23 26 26 18 18 17 20 14 15 16 14 15 14 12 11 11 10 9 9 9 8 8 8
1 1 2 12 17 4 6 5 15 16 10 14 14 13 13 16 21 22 23 22 18 12 7 9 13 19 20 20 27 29 21 18 25 21 14 16 15 14 14 13 12 11 12 11 10 9 8 8 8
5 4 7 2 17 5 5 3 14 13 10 13 13 13 12 13 21 22 22 20 18 15 10 6 10 12 16 24 23 27 29 22 25 25 16 17 17 16 16 14 13 13 12 12 11 10 10 10 9
5 3 3 6 9 10 11 10 10 12 13 13 13 13 13 14 16 20 20 19 18 17 14 10 6 9 19 22 24 29 29 26 19 28 28 20 20 21 17 16 16 16 14 13 12 12 11 9 9
2 1 4 2 5 5 9 9 9 11 14 15 14 14 14 14 18 20 20 18 18 18 18 16 13 9 6 9 20 19 23 30 28 27 31 28 26 25 23 17 18 19 18 17 16 14 14 16 14
4 2 5 1 6 2 5 7 6 11 12 13 13 13 14 14 13 17 18 19 19 17 16 16 15 12 10 7 8 23 19 23 31 33 31 32 32 31 31 24 20 21 18 18 18 18 14 15 18
4 7 6 3 5 1 4 4 3 2 6 11 12 12 13 14 15 18 21 20 19 19 21 17 15 14 10 9 5 16 18 16 20 25 28 30 35 34 32 33 25 21 22 22 23 22 21 16 19
3 6 5 4 4 2 1 0 6 1 1 11 13 13 13 14 14 17 20 22 20 20 18 18 17 13 11 9 4 4 16 15 22 24 27 28 30 36 37 37 34 24 22 23 23 23 22 21 16
4 8 3 1 2 2 4 4 5 0 1 11 13 13 13 13 14 16 18 19 19 19 18 18 17 16 13 11 8 6 8 17 19 27 29 26 28 27 34 40 37 36 37 34 25 23 25 26 24
10 3 1 1 1 3 1 3 5 2 2 8 11 11 12 13 13 17 18 18 19 20 19 18 17 17 16 14 11 9 8 8 18 22 25 27 30 30 33 33 34 36 35 34 37 36 32 33 28
11 3 1 2 1 1 1 4 4 4 3 6 9 10 10 11 12 15 19 21 21 21 20 19 18 18 17 16 15 13 12 11 12 18 24 23 26 29 32 32 32 35 36 37 34 32 34 36 35
6 5 3 4 3 3 1 3 3 4 2 4 4 6 8 11 11 13 18 19 21 21 21 20 19 19 18 16 15 14 13 13 14 13 16 22 26 27 26 28 31 34 33 34 34 31 33 34 37
4 4 2 1 2 3 1 2 4 5 3 4 5 7 10 11 11 13 16 17 19 20 20 20 19 18 17 16 16 14 13 13 15 16 14 19 25 23 20 21 21 24 32 34 33 33 33 34 34
3 1 1 1 4 3 1 4 3 2 3 4 5 8 10 11 12 13 15 17 18 18 18 18 17 17 16 15 14 13 14 13 15 16 18 13 20 20 20 18 18 18 19 21 25 29 32 32 33
2 1 1 1 2 2 4 1 2 3 5 6 5 7 9 11 11 11 14 15 16 18 19 18 18 17 17 16 15 13 11 11 13 13 13 17 15 16 16 18 17 16 17 18 20 23 25 26 26
3 4 3 2 1 1 2 4 3 6 6 6 6 7 8 9 9 12 13 15 16 18 19 19 18 17 16 15 14 14 12 10 7 1 4 7 14 15 15 16 11 8 7 8 9 10 12 11 7